When you browse on this site, cookies collect data to enhance your experience and personalize the content and advertising you see.
Visit our Privacy Policy to learn more. By continuing to use the site, you agree to this use of cookies and data.
  • In Latvia
  • List of Countries
  • For 7 days
  • Water Temperature
  • Satellite Maps
  • Weather Map
  • Weather Widgets
  • user-avatar
    Login

    Hourly Weather Kalat

    Today, 11 December, Tuesday

    Time Temperature Precipitation Wind Pressure Humidity
    00:00 -19°C° 0 mm 2 mps 465 mmHg 79%
    01:00 -19°C° 0 mm 2 mps 465 mmHg 78%
    02:00 -20°C° 0 mm 2 mps 465 mmHg 77%
    03:00 -20°C° 0 mm 2 mps 465 mmHg 77%
    04:00 -20°C° 0 mm 2 mps 465 mmHg 77%
    05:00 -19°C° 0 mm 2 mps 465 mmHg 75%
    06:00 -19°C° 0 mm 2 mps 465 mmHg 75%
    07:00 -19°C° 0 mm 2 mps 465 mmHg 74%
    08:00 -19°C° 0 mm 2 mps 466 mmHg 74%
    09:00 -17°C° 0 mm 2 mps 467 mmHg 71%
    10:00 -15°C° 0 mm 2 mps 468 mmHg 68%
    11:00 -11°C° 0 mm 1 mps 470 mmHg 65%
    12:00 -11°C° 0.1 mm 1 mps 470 mmHg 65%
    13:00 -10°C° 0.1 mm 1 mps 470 mmHg 66%
    14:00 -10°C° 0.1 mm 1 mps 469 mmHg 66%
    15:00 -11°C° 0.1 mm 1 mps 469 mmHg 71%
    16:00 -13°C° 0.1 mm 1 mps 468 mmHg 76%
    17:00 -14°C° 0.1 mm 1 mps 467 mmHg 81%
    18:00 -15°C° 0 mm 1 mps 467 mmHg 81%
    19:00 -15°C° 0 mm 1 mps 467 mmHg 81%
    20:00 -16°C° 0 mm 1 mps 466 mmHg 81%
    21:00 -18°C° 0 mm 2 mps 466 mmHg 80%
    22:00 -19°C° 0 mm 2 mps 466 mmHg 79%
    23:00 -19°C° 0 mm 2 mps 466 mmHg 78%

    Tomorrow, 12 December, Wednesday

    Time Temperature Precipitation Wind Pressure Humidity
    00:00 -20°C° 0 mm 2 mps 466 mmHg 78%
    01:00 -20°C° 0 mm 2 mps 466 mmHg 77%
    02:00 -20°C° 0 mm 2 mps 465 mmHg 77%
    03:00 -20°C° 0 mm 2 mps 465 mmHg 76%
    04:00 -21°C° 0 mm 2 mps 465 mmHg 75%
    05:00 -21°C° 0 mm 2 mps 465 mmHg 74%
    06:00 -21°C° 0 mm 2 mps 465 mmHg 73%
    07:00 -21°C° 0 mm 2 mps 466 mmHg 72%
    08:00 -21°C° 0 mm 2 mps 466 mmHg 71%
    09:00 -18°C° 0 mm 2 mps 467 mmHg 67%
    10:00 -16°C° 0 mm 2 mps 469 mmHg 63%
    11:00 -12°C° 0 mm 1 mps 471 mmHg 60%
    12:00 -11°C° 0 mm 1 mps 471 mmHg 59%
    13:00 -11°C° 0 mm 1 mps 471 mmHg 58%
    14:00 -10°C° 0 mm 1 mps 471 mmHg 57%
    15:00 -12°C° 0 mm 1 mps 469 mmHg 62%
    16:00 -15°C° 0 mm 1 mps 467 mmHg 67%
    17:00 -17°C° 0 mm 0 mps 466 mmHg 71%
    18:00 -17°C° 0 mm 1 mps 466 mmHg 70%
    19:00 -20°C° 0 mm 2 mps 466 mmHg 69%
    20:00 -20°C° 0 mm 2 mps 466 mmHg 68%
    21:00 -20°C° 0 mm 2 mps 466 mmHg 66%
    22:00 -23°C° 0 mm 3 mps 466 mmHg 64%
    23:00 -23°C° 0 mm 3 mps 466 mmHg 62%

    Day after tomorrow, 13 December, Thursday

    Time Temperature Precipitation Wind Pressure Humidity
    00:00 -23°C° 0 mm 3 mps 466 mmHg 59%
    01:00 -23°C° 0 mm 3 mps 466 mmHg 56%
    02:00 -23°C° 0 mm 3 mps 466 mmHg 53%
    03:00 -23°C° 0 mm 3 mps 466 mmHg 49%
    04:00 -23°C° 0 mm 3 mps 466 mmHg 46%
    05:00 -23°C° 0 mm 3 mps 466 mmHg 43%
    06:00 -23°C° 0 mm 3 mps 466 mmHg 40%
    07:00 -23°C° 0 mm 3 mps 467 mmHg 38%
    08:00 -23°C° 0 mm 3 mps 467 mmHg 35%
    09:00 -18°C° 0 mm 2 mps 469 mmHg 37%
    10:00 -15°C° 0 mm 2 mps 470 mmHg 38%
    11:00 -10°C° 0 mm 1 mps 472 mmHg 40%
    12:00 -10°C° 0 mm 1 mps 472 mmHg 40%
    13:00 -9°C° 0 mm 1 mps 472 mmHg 41%
    14:00 -9°C° 0 mm 1 mps 472 mmHg 41%
    15:00 -11°C° 0 mm 1 mps 470 mmHg 40%
    16:00 -13°C° 0 mm 1 mps 469 mmHg 40%
    17:00 -17°C° 0 mm 2 mps 467 mmHg 40%
    18:00 -18°C° 0 mm 2 mps 467 mmHg 37%
    19:00 -18°C° 0 mm 2 mps 468 mmHg 34%
    20:00 -19°C° 0 mm 3 mps 468 mmHg 31%
    21:00 -19°C° 0 mm 3 mps 468 mmHg 30%
    22:00 -19°C° 0 mm 3 mps 468 mmHg 29%
    23:00 -19°C° 0 mm 3 mps 468 mmHg 27%

    14 December, Friday

    Time Temperature Precipitation Wind Pressure Humidity
    00:00 -19°C° 0 mm 3 mps 468 mmHg 28%
    01:00 -19°C° 0 mm 3 mps 468 mmHg 29%
    02:00 -19°C° 0 mm 3 mps 468 mmHg 30%
    03:00 -19°C° 0 mm 3 mps 468 mmHg 31%
    04:00 -19°C° 0 mm 3 mps 468 mmHg 32%
    05:00 -19°C° 0 mm 3 mps 468 mmHg 33%
    06:00 -19°C° 0 mm 3 mps 468 mmHg 33%
    07:00 -19°C° 0 mm 3 mps 469 mmHg 34%
    08:00 -19°C° 0 mm 3 mps 469 mmHg 34%
    09:00 -15°C° 0 mm 2 mps 471 mmHg 38%
    10:00 -12°C° 0 mm 2 mps 473 mmHg 42%
    11:00 -8°C° 0 mm 1 mps 474 mmHg 45%
    12:00 -7°C° 0 mm 1 mps 474 mmHg 46%
    13:00 -6°C° 0 mm 1 mps 474 mmHg 47%
    14:00 -6°C° 0 mm 1 mps 474 mmHg 47%
    15:00 -8°C° 0 mm 1 mps 473 mmHg 47%
    16:00 -10°C° 0 mm 1 mps 471 mmHg 46%
    17:00 -15°C° 0 mm 2 mps 470 mmHg 46%
    18:00 -15°C° 0 mm 2 mps 470 mmHg 43%
    19:00 -16°C° 0 mm 2 mps 470 mmHg 41%
    20:00 -17°C° 0 mm 2 mps 470 mmHg 38%
    21:00 -17°C° 0 mm 2 mps 470 mmHg 37%
    22:00 -17°C° 0 mm 2 mps 470 mmHg 35%
    23:00 -18°C° 0 mm 3 mps 470 mmHg 33%

    15 December, Saturday

    Time Temperature Precipitation Wind Pressure Humidity
    00:00 -18°C° 0 mm 3 mps 470 mmHg 32%
    01:00 -18°C° 0 mm 3 mps 470 mmHg 31%
    02:00 -18°C° 0 mm 3 mps 469 mmHg 30%
    03:00 -18°C° 0 mm 3 mps 469 mmHg 30%
    04:00 -18°C° 0 mm 3 mps 469 mmHg 29%
    05:00 -18°C° 0 mm 3 mps 469 mmHg 28%
    06:00 -18°C° 0 mm 3 mps 470 mmHg 28%
    07:00 -18°C° 0 mm 3 mps 470 mmHg 27%
    08:00 -18°C° 0 mm 3 mps 470 mmHg 27%
    09:00 -15°C° 0 mm 3 mps 472 mmHg 32%
    10:00 -10°C° 0 mm 2 mps 474 mmHg 37%
    11:00 -6°C° 0 mm 1 mps 475 mmHg 43%
    12:00 -6°C° 0 mm 1 mps 475 mmHg 44%
    13:00 -4°C° 0 mm 1 mps 475 mmHg 45%
    14:00 -3°C° 0 mm 1 mps 475 mmHg 47%
    15:00 -8°C° 0 mm 2 mps 474 mmHg 46%
    16:00 -10°C° 0 mm 2 mps 472 mmHg 46%
    17:00 -13°C° 0 mm 2 mps 471 mmHg 45%
    18:00 -14°C° 0 mm 2 mps 471 mmHg 43%
    19:00 -16°C° 0 mm 3 mps 471 mmHg 40%
    20:00 -16°C° 0 mm 3 mps 471 mmHg 38%
    21:00 -16°C° 0 mm 3 mps 471 mmHg 36%
    22:00 -17°C° 0 mm 3 mps 471 mmHg 33%
    23:00 -17°C° 0 mm 3 mps 471 mmHg 31%

    16 December, Sunday

    Time Temperature Precipitation Wind Pressure Humidity
    00:00 -17°C° 0 mm 3 mps 471 mmHg 30%
    01:00 -17°C° 0 mm 3 mps 471 mmHg 28%
    02:00 -17°C° 0 mm 3 mps 470 mmHg 27%
    03:00 -17°C° 0 mm 3 mps 470 mmHg 26%
    04:00 -17°C° 0 mm 3 mps 470 mmHg 25%
    05:00 -17°C° 0 mm 3 mps 470 mmHg 25%
    06:00 -17°C° 0 mm 3 mps 471 mmHg 24%
    07:00 -17°C° 0 mm 3 mps 471 mmHg 24%
    08:00 -17°C° 0 mm 3 mps 471 mmHg 24%
    09:00 -14°C° 0 mm 2 mps 473 mmHg 29%
    10:00 -10°C° 0 mm 2 mps 474 mmHg 34%
    11:00 -7°C° 0 mm 1 mps 476 mmHg 38%
    12:00 -6°C° 0 mm 1 mps 476 mmHg 41%
    13:00 -6°C° 0 mm 1 mps 476 mmHg 44%
    14:00 -6°C° 0 mm 1 mps 476 mmHg 46%
    15:00 -8°C° 0 mm 1 mps 474 mmHg 46%
    16:00 -10°C° 0 mm 1 mps 472 mmHg 46%
    17:00 -13°C° 0 mm 1 mps 470 mmHg 46%
    18:00 -15°C° 0 mm 2 mps 470 mmHg 44%
    19:00 -16°C° 0 mm 2 mps 471 mmHg 41%
    20:00 -17°C° 0 mm 3 mps 471 mmHg 38%
    21:00 -17°C° 0 mm 3 mps 471 mmHg 36%
    22:00 -17°C° 0 mm 3 mps 471 mmHg 34%
    23:00 -17°C° 0 mm 3 mps 470 mmHg 32%
    Show more